LHA11D EGHI-EGNS

Flight info

Callsign LHA11D
Flight time 1h 0m
Altitude 24000
Route NORRY Q41 SILVA M605 DTY DCT SAPCO N57 TNT L28 PENIL L10 KELLY
Aircraft DH8D/M-SDE1E2FGIJ1RWYZ/S

Departure

Time 2026-05-09 05:43
Airport Southampton Airport (EGHI)

Arrival

Time 2026-05-09 06:43
Airport Isle of Man Airport (EGNS)
Time Latitude Longitude Altitude Speed Heading
2026-05-09 04:41 50.95041 -1.36015 44 ft 0 kts 290°
2026-05-09 05:12 50.95041 -1.36014 44 ft 0 kts 290°
2026-05-09 05:13 50.95041 -1.36015 44 ft 0 kts 290°
2026-05-09 05:28 50.95040 -1.36011 44 ft 2 kts 290°
2026-05-09 05:29 50.95036 -1.35990 44 ft 2 kts 290°
2026-05-09 05:29 50.95031 -1.35968 44 ft 2 kts 289°
2026-05-09 05:29 50.95031 -1.35945 44 ft 2 kts 245°
2026-05-09 05:29 50.95041 -1.35929 44 ft 2 kts 203°
2026-05-09 05:30 50.95054 -1.35922 44 ft 1 kts 199°
2026-05-09 05:30 50.95057 -1.35920 44 ft 0 kts 199°
2026-05-09 05:35 50.95053 -1.35922 44 ft 1 kts 200°
2026-05-09 05:35 50.95047 -1.35926 44 ft 2 kts 200°
2026-05-09 05:35 50.95020 -1.35942 44 ft 6 kts 201°
2026-05-09 05:36 50.94969 -1.35970 44 ft 9 kts 198°
2026-05-09 05:36 50.94899 -1.36003 44 ft 11 kts 204°
2026-05-09 05:36 50.94819 -1.36051 44 ft 13 kts 197°
2026-05-09 05:36 50.94727 -1.36101 44 ft 14 kts 199°
2026-05-09 05:37 50.94655 -1.36141 44 ft 9 kts 188°
2026-05-09 05:37 50.94598 -1.36108 43 ft 3 kts 133°
2026-05-09 05:37 50.94597 -1.36106 43 ft 0 kts 131°
2026-05-09 05:41 50.94593 -1.36096 43 ft 2 kts 120°
2026-05-09 05:41 50.94581 -1.36055 42 ft 5 kts 112°
2026-05-09 05:41 50.94564 -1.35986 42 ft 8 kts 111°
2026-05-09 05:41 50.94592 -1.35923 41 ft 6 kts 19°
2026-05-09 05:42 50.94597 -1.35921 41 ft 0 kts 19°
2026-05-09 05:42 50.94701 -1.35862 42 ft 53 kts 20°
2026-05-09 05:42 50.95299 -1.35531 41 ft 123 kts 19°
2026-05-09 05:42 50.96147 -1.35011 366 ft 130 kts 23°
2026-05-09 05:43 50.97004 -1.34279 643 ft 152 kts 32°
2026-05-09 05:43 50.97986 -1.33664 1146 ft 157 kts 13°
2026-05-09 05:43 50.99058 -1.33303 1681 ft 159 kts 20°
2026-05-09 05:43 51.00111 -1.32887 2271 ft 159 kts 19°
2026-05-09 05:44 51.01191 -1.32477 2842 ft 161 kts 20°
2026-05-09 05:44 51.02305 -1.32035 3101 ft 179 kts 19°
2026-05-09 05:44 51.03579 -1.31530 3022 ft 194 kts 18°
2026-05-09 05:44 51.04871 -1.31026 3064 ft 192 kts 18°
2026-05-09 05:45 51.06191 -1.30520 2981 ft 195 kts 19°
2026-05-09 05:45 51.07489 -1.29969 2976 ft 195 kts 19°
2026-05-09 05:45 51.08806 -1.29410 2972 ft 195 kts 19°
2026-05-09 05:45 51.10096 -1.28865 3031 ft 190 kts 19°
2026-05-09 05:46 51.11386 -1.28319 3495 ft 191 kts 20°
2026-05-09 05:46 51.12642 -1.27781 4213 ft 187 kts 19°
2026-05-09 05:46 51.13879 -1.27237 4804 ft 188 kts 19°
2026-05-09 05:46 51.15141 -1.26662 5401 ft 190 kts 19°
2026-05-09 05:47 51.16394 -1.26074 5986 ft 191 kts 19°
2026-05-09 05:47 51.17657 -1.25465 6556 ft 194 kts 19°
2026-05-09 05:47 51.18951 -1.24827 7138 ft 196 kts 19°
2026-05-09 05:47 51.20240 -1.24183 7705 ft 198 kts 19°
2026-05-09 05:48 51.21562 -1.23511 8286 ft 201 kts 19°
2026-05-09 05:48 51.22883 -1.22853 8862 ft 203 kts 17°
2026-05-09 05:48 51.24252 -1.22271 9438 ft 206 kts 16°
2026-05-09 05:48 51.25649 -1.21673 10014 ft 209 kts 16°
2026-05-09 05:49 51.27042 -1.21070 10588 ft 211 kts 16°
2026-05-09 05:49 51.28468 -1.20441 11171 ft 214 kts 16°
2026-05-09 05:49 51.29897 -1.19792 11746 ft 215 kts 16°
2026-05-09 05:49 51.31324 -1.19124 12313 ft 217 kts 16°
2026-05-09 05:50 51.32784 -1.18426 12860 ft 220 kts 15°
2026-05-09 05:50 51.34248 -1.17814 13400 ft 221 kts 12°
2026-05-09 05:50 51.35765 -1.17247 13837 ft 229 kts 12°
2026-05-09 05:50 51.37357 -1.16635 14018 ft 248 kts 13°
2026-05-09 05:51 51.39117 -1.15938 14085 ft 271 kts 13°
2026-05-09 05:51 51.40974 -1.15186 14091 ft 282 kts 13°
2026-05-09 05:51 51.42903 -1.14398 14092 ft 287 kts 13°
2026-05-09 05:51 51.44837 -1.13597 14101 ft 292 kts 13°
2026-05-09 05:52 51.46825 -1.12765 14113 ft 296 kts 14°
2026-05-09 05:52 51.48809 -1.11929 14109 ft 300 kts 14°
2026-05-09 05:52 51.50847 -1.11066 14106 ft 302 kts 14°
2026-05-09 05:52 51.52867 -1.10208 14125 ft 305 kts 14°
2026-05-09 05:53 51.54938 -1.09325 14116 ft 307 kts 14°
2026-05-09 05:53 51.56991 -1.08448 14106 ft 309 kts 14°
2026-05-09 05:53 51.59084 -1.07552 14109 ft 310 kts 14°
2026-05-09 05:53 51.61154 -1.06669 14105 ft 311 kts 13°
2026-05-09 05:54 51.63294 -1.05990 14103 ft 312 kts
2026-05-09 05:54 51.65417 -1.05453 14106 ft 312 kts
2026-05-09 05:54 51.67561 -1.04913 14396 ft 310 kts
2026-05-09 05:54 51.69658 -1.04380 14763 ft 306 kts
2026-05-09 05:55 51.71758 -1.03845 15141 ft 303 kts
2026-05-09 05:55 51.73808 -1.03321 15502 ft 300 kts
2026-05-09 05:55 51.75874 -1.02791 15865 ft 299 kts
2026-05-09 05:55 51.77900 -1.02270 16228 ft 298 kts
2026-05-09 05:56 51.79950 -1.01743 16594 ft 297 kts
2026-05-09 05:56 51.81967 -1.01222 16959 ft 297 kts
2026-05-09 05:56 51.84016 -1.00709 17324 ft 297 kts
2026-05-09 05:56 51.86040 -1.00839 17658 ft 295 kts 349°
2026-05-09 05:57 51.88054 -1.01487 18036 ft 295 kts 347°
2026-05-09 05:57 51.90043 -1.02147 18400 ft 295 kts 347°
2026-05-09 05:57 51.92066 -1.02819 18770 ft 296 kts 347°
2026-05-09 05:57 51.94063 -1.03480 19137 ft 296 kts 347°
2026-05-09 05:58 51.96086 -1.04147 19500 ft 296 kts 347°
2026-05-09 05:58 51.98116 -1.04814 19826 ft 298 kts 347°
2026-05-09 05:58 52.00134 -1.05476 20077 ft 301 kts 347°
2026-05-09 05:58 52.02177 -1.06146 20350 ft 303 kts 347°
2026-05-09 05:59 52.04256 -1.06827 20614 ft 305 kts 347°
2026-05-09 05:59 52.06321 -1.07504 20881 ft 307 kts 347°
2026-05-09 05:59 52.08430 -1.08195 21123 ft 309 kts 346°
2026-05-09 05:59 52.10523 -1.08882 21335 ft 311 kts 346°
2026-05-09 06:00 52.12654 -1.09581 21557 ft 313 kts 346°
2026-05-09 06:00 52.14806 -1.10288 21783 ft 315 kts 346°
2026-05-09 06:00 52.16934 -1.10988 22003 ft 316 kts 346°
2026-05-09 06:00 52.19058 -1.11971 22179 ft 316 kts 336°
2026-05-09 06:01 52.21071 -1.13309 22390 ft 317 kts 334°
2026-05-09 06:01 52.23120 -1.14702 22584 ft 318 kts 334°
2026-05-09 06:01 52.25148 -1.16078 22760 ft 320 kts 334°
2026-05-09 06:01 52.27214 -1.17479 22953 ft 321 kts 334°
2026-05-09 06:02 52.29254 -1.18861 23135 ft 323 kts 334°
2026-05-09 06:02 52.31340 -1.20272 23320 ft 323 kts 334°
2026-05-09 06:02 52.33402 -1.21666 23462 ft 325 kts 334°
2026-05-09 06:02 52.35503 -1.23088 23638 ft 326 kts 334°
2026-05-09 06:03 52.37580 -1.24494 23809 ft 327 kts 333°
2026-05-09 06:03 52.39694 -1.25925 23967 ft 328 kts 334°
2026-05-09 06:03 52.41783 -1.27340 24098 ft 330 kts 334°
2026-05-09 06:03 52.43926 -1.28795 24132 ft 334 kts 334°
2026-05-09 06:04 52.46069 -1.30250 24137 ft 339 kts 334°
2026-05-09 06:04 52.48273 -1.31748 24141 ft 344 kts 334°
2026-05-09 06:04 52.50470 -1.33242 24140 ft 347 kts 334°
2026-05-09 06:04 52.52721 -1.34774 24141 ft 350 kts 334°
2026-05-09 06:05 52.54958 -1.36284 24137 ft 353 kts 334°
2026-05-09 06:05 52.57271 -1.37702 24138 ft 352 kts 336°
2026-05-09 06:05 52.59578 -1.39074 24137 ft 350 kts 336°
2026-05-09 06:05 52.61836 -1.40421 24139 ft 348 kts 336°
2026-05-09 06:06 52.64114 -1.41785 24136 ft 346 kts 336°
2026-05-09 06:06 52.66362 -1.43138 24137 ft 345 kts 336°
2026-05-09 06:06 52.68631 -1.44505 24143 ft 345 kts 336°
2026-05-09 06:06 52.70857 -1.45851 24139 ft 344 kts 336°
2026-05-09 06:07 52.73112 -1.47216 24139 ft 344 kts 336°
2026-05-09 06:07 52.75331 -1.48562 24140 ft 343 kts 336°
2026-05-09 06:07 52.77580 -1.49928 24139 ft 343 kts 336°
2026-05-09 06:07 52.79795 -1.51276 24143 ft 342 kts 336°
2026-05-09 06:08 52.82041 -1.52645 24141 ft 342 kts 336°
2026-05-09 06:08 52.84250 -1.53992 24140 ft 342 kts 336°
2026-05-09 06:08 52.86490 -1.55360 24142 ft 341 kts 336°
2026-05-09 06:08 52.88695 -1.56709 24140 ft 341 kts 336°
2026-05-09 06:09 52.90926 -1.58075 24137 ft 341 kts 336°
2026-05-09 06:09 52.93154 -1.59440 24139 ft 341 kts 335°
2026-05-09 06:09 52.95357 -1.60792 24136 ft 341 kts 335°
2026-05-09 06:09 52.97587 -1.62163 24139 ft 340 kts 335°
2026-05-09 06:10 52.99786 -1.63515 24139 ft 340 kts 335°
2026-05-09 06:10 53.02012 -1.64886 24137 ft 340 kts 335°
2026-05-09 06:10 53.04235 -1.66256 24137 ft 340 kts 334°
2026-05-09 06:10 53.06343 -1.67879 24137 ft 334 kts 324°
2026-05-09 06:11 53.08304 -1.69892 24132 ft 333 kts 322°
2026-05-09 06:11 53.10271 -1.71958 24130 ft 333 kts 322°
2026-05-09 06:11 53.12231 -1.74018 24127 ft 333 kts 322°
2026-05-09 06:11 53.14193 -1.76077 24128 ft 333 kts 322°
2026-05-09 06:12 53.16130 -1.78109 24129 ft 332 kts 322°
2026-05-09 06:12 53.18094 -1.80168 24127 ft 332 kts 322°
2026-05-09 06:12 53.20032 -1.82200 24124 ft 332 kts 322°
2026-05-09 06:12 53.21998 -1.84262 24122 ft 332 kts 322°
2026-05-09 06:13 53.23764 -1.86598 24093 ft 322 kts 304°
2026-05-09 06:13 53.24897 -1.89748 24129 ft 313 kts 291°
2026-05-09 06:13 53.25864 -1.92963 24129 ft 313 kts 291°
2026-05-09 06:13 53.26838 -1.96234 24125 ft 313 kts 291°
2026-05-09 06:14 53.27797 -1.99462 24125 ft 313 kts 291°
2026-05-09 06:14 53.28769 -2.02735 24120 ft 314 kts 291°
2026-05-09 06:14 53.29727 -2.05963 24128 ft 313 kts 291°
2026-05-09 06:14 53.30697 -2.09234 24125 ft 313 kts 291°
2026-05-09 06:15 53.31666 -2.12507 24127 ft 313 kts 291°
2026-05-09 06:15 53.32622 -2.15736 24130 ft 313 kts 291°
2026-05-09 06:15 53.33591 -2.19013 24139 ft 313 kts 291°
2026-05-09 06:15 53.34545 -2.22246 24136 ft 313 kts 291°
2026-05-09 06:16 53.35504 -2.25523 24136 ft 312 kts 289°
2026-05-09 06:16 53.36273 -2.28907 24146 ft 309 kts 283°
2026-05-09 06:16 53.36917 -2.32296 24141 ft 308 kts 283°
2026-05-09 06:16 53.37565 -2.35735 24142 ft 308 kts 283°
2026-05-09 06:17 53.38202 -2.39118 24140 ft 309 kts 283°
2026-05-09 06:17 53.38851 -2.42557 24139 ft 308 kts 283°
2026-05-09 06:17 53.39491 -2.45945 24143 ft 308 kts 283°
2026-05-09 06:17 53.40140 -2.49383 24143 ft 308 kts 283°
2026-05-09 06:18 53.40779 -2.52772 24140 ft 308 kts 283°
2026-05-09 06:18 53.41427 -2.56209 24139 ft 308 kts 283°
2026-05-09 06:18 53.42077 -2.59657 24140 ft 308 kts 283°
2026-05-09 06:18 53.42712 -2.63040 24141 ft 308 kts 283°
2026-05-09 06:19 53.43359 -2.66486 24141 ft 308 kts 282°
2026-05-09 06:19 53.43995 -2.69878 24140 ft 308 kts 282°
2026-05-09 06:19 53.44640 -2.73328 24139 ft 308 kts 282°
2026-05-09 06:19 53.45275 -2.76724 24139 ft 308 kts 282°
2026-05-09 06:20 53.45918 -2.80171 24138 ft 308 kts 282°
2026-05-09 06:20 53.46555 -2.83595 24138 ft 308 kts 282°
2026-05-09 06:20 53.47187 -2.86993 24136 ft 309 kts 282°
2026-05-09 06:20 53.47827 -2.90444 24137 ft 308 kts 282°
2026-05-09 06:21 53.48457 -2.93843 24138 ft 308 kts 282°
2026-05-09 06:21 53.49095 -2.97300 24142 ft 308 kts 282°
2026-05-09 06:21 53.49723 -3.00700 24139 ft 308 kts 282°
2026-05-09 06:21 53.50359 -3.04151 24140 ft 308 kts 282°
2026-05-09 06:22 53.50982 -3.07545 24139 ft 308 kts 282°
2026-05-09 06:22 53.51617 -3.11006 24139 ft 308 kts 282°
2026-05-09 06:22 53.52239 -3.14400 24140 ft 308 kts 282°
2026-05-09 06:22 53.52873 -3.17868 23977 ft 311 kts 282°
2026-05-09 06:23 53.53498 -3.21297 23736 ft 310 kts 282°
2026-05-09 06:23 53.54131 -3.24775 23493 ft 310 kts 283°
2026-05-09 06:23 53.54752 -3.28196 23258 ft 310 kts 283°
2026-05-09 06:23 53.55382 -3.31670 23018 ft 310 kts 283°
2026-05-09 06:24 53.56001 -3.35092 22781 ft 309 kts 283°
2026-05-09 06:24 53.56629 -3.38566 22535 ft 309 kts 283°
2026-05-09 06:24 53.57247 -3.41996 22195 ft 311 kts 283°
2026-05-09 06:24 53.57874 -3.45481 21755 ft 310 kts 284°
2026-05-09 06:25 53.58486 -3.48904 21322 ft 309 kts 284°
2026-05-09 06:25 53.59105 -3.52361 20880 ft 307 kts 284°
2026-05-09 06:25 53.59712 -3.55752 20442 ft 305 kts 284°
2026-05-09 06:25 53.60322 -3.59162 19991 ft 303 kts 285°
2026-05-09 06:26 53.60920 -3.62501 19553 ft 301 kts 285°
2026-05-09 06:26 53.61553 -3.65854 19094 ft 300 kts 289°
2026-05-09 06:26 53.62597 -3.68904 18651 ft 300 kts 301°
2026-05-09 06:26 53.63789 -3.71732 18209 ft 299 kts 302°
2026-05-09 06:27 53.64998 -3.74585 17755 ft 298 kts 302°
2026-05-09 06:27 53.66184 -3.77391 17310 ft 297 kts 302°
2026-05-09 06:27 53.67380 -3.80235 16859 ft 296 kts 302°
2026-05-09 06:27 53.68554 -3.83034 16408 ft 296 kts 302°
2026-05-09 06:28 53.69740 -3.85872 15951 ft 295 kts 302°
2026-05-09 06:28 53.70906 -3.88666 15496 ft 295 kts 303°
2026-05-09 06:28 53.72085 -3.91500 15046 ft 294 kts 303°
2026-05-09 06:28 53.73245 -3.94292 14591 ft 294 kts 303°
2026-05-09 06:29 53.74420 -3.97126 14140 ft 294 kts 303°
2026-05-09 06:29 53.75576 -3.99917 13704 ft 293 kts 303°
2026-05-09 06:29 53.76747 -4.02747 13263 ft 292 kts 303°
2026-05-09 06:29 53.77893 -4.05523 12837 ft 291 kts 303°
2026-05-09 06:30 53.79055 -4.08340 12404 ft 290 kts 303°
2026-05-09 06:30 53.80193 -4.11101 11978 ft 289 kts 303°
2026-05-09 06:30 53.81342 -4.13895 11547 ft 288 kts 303°
2026-05-09 06:30 53.82471 -4.16642 11128 ft 287 kts 303°
2026-05-09 06:31 53.83613 -4.19424 10698 ft 287 kts 303°
2026-05-09 06:31 53.84735 -4.22159 10275 ft 286 kts 303°
2026-05-09 06:31 53.85869 -4.24928 9841 ft 285 kts 304°
2026-05-09 06:31 53.86982 -4.27648 9411 ft 284 kts 304°
2026-05-09 06:32 53.88103 -4.30393 9006 ft 280 kts 304°
2026-05-09 06:32 53.89192 -4.33066 8622 ft 277 kts 304°
2026-05-09 06:32 53.90266 -4.35768 8232 ft 274 kts 300°
2026-05-09 06:33 53.91335 -4.41713 7449 ft 257 kts 283°
2026-05-09 06:33 53.91719 -4.44585 7058 ft 249 kts 282°
2026-05-09 06:33 53.92096 -4.47416 6661 ft 242 kts 283°
2026-05-09 06:34 53.92821 -4.52821 5879 ft 230 kts 283°
2026-05-09 06:34 53.93169 -4.55406 5497 ft 224 kts 284°
2026-05-09 06:34 53.93512 -4.57953 5146 ft 217 kts 284°
2026-05-09 06:34 53.93839 -4.60379 4811 ft 210 kts 285°
2026-05-09 06:35 53.94159 -4.62756 4495 ft 202 kts 285°
2026-05-09 06:35 53.94471 -4.65056 4176 ft 197 kts 285°
2026-05-09 06:35 53.94776 -4.67284 3910 ft 196 kts 285°
2026-05-09 06:35 53.95086 -4.69541 3652 ft 195 kts 285°
2026-05-09 06:36 53.95389 -4.71762 3402 ft 195 kts 286°
2026-05-09 06:36 53.95696 -4.74014 3144 ft 195 kts 286°
2026-05-09 06:36 53.95996 -4.76231 2891 ft 195 kts 287°
2026-05-09 06:36 53.96300 -4.78479 2637 ft 194 kts 287°
2026-05-09 06:37 53.96599 -4.80700 2388 ft 196 kts 288°
2026-05-09 06:37 53.96901 -4.82945 2163 ft 195 kts 288°
2026-05-09 06:37 53.97265 -4.85116 2049 ft 182 kts 304°
2026-05-09 06:37 53.98145 -4.86245 2010 ft 154 kts 355°
2026-05-09 06:38 53.99213 -4.86114 2019 ft 155 kts
2026-05-09 06:38 54.00280 -4.85813 2017 ft 159 kts 10°
2026-05-09 06:38 54.01384 -4.85452 2013 ft 162 kts 11°
2026-05-09 06:38 54.02490 -4.85058 2011 ft 165 kts 12°
2026-05-09 06:39 54.03628 -4.84630 2008 ft 167 kts 12°
2026-05-09 06:39 54.04757 -4.84192 2007 ft 168 kts 12°
2026-05-09 06:39 54.05875 -4.83608 1992 ft 168 kts 28°
2026-05-09 06:39 54.06505 -4.82011 2001 ft 170 kts 70°
2026-05-09 06:40 54.06701 -4.80065 1993 ft 162 kts 77°
2026-05-09 06:40 54.06794 -4.78213 1987 ft 154 kts 78°
2026-05-09 06:40 54.06874 -4.76420 2015 ft 148 kts 77°
2026-05-09 06:40 54.06987 -4.74665 1906 ft 151 kts 70°
2026-05-09 06:41 54.07195 -4.72947 1602 ft 145 kts 69°
2026-05-09 06:41 54.07431 -4.71298 1114 ft 148 kts 68°
2026-05-09 06:41 54.07486 -4.69554 841 ft 144 kts 82°
2026-05-09 06:41 54.07590 -4.67923 634 ft 138 kts 70°
2026-05-09 06:42 54.07812 -4.66337 412 ft 136 kts 69°
2026-05-09 06:42 54.08006 -4.64827 189 ft 127 kts 70°
2026-05-09 06:42 54.08191 -4.63403 49 ft 116 kts 71°
2026-05-09 06:42 54.08359 -4.62182 40 ft 99 kts 79°
2026-05-09 06:43 54.08489 -4.61233 42 ft 56 kts 81°
2026-05-09 06:43 54.08522 -4.60933 33 ft 17 kts 99°
2026-05-09 06:43 54.08502 -4.60910 31 ft 2 kts 277°
2026-05-09 06:43 54.08496 -4.61071 37 ft 23 kts 257°
2026-05-09 06:44 54.08458 -4.61339 42 ft 18 kts 259°
2026-05-09 06:44 54.08488 -4.61419 44 ft 4 kts 332°
2026-05-09 06:44 54.08501 -4.61431 44 ft 1 kts 332°
2026-05-09 06:44 54.08514 -4.61445 45 ft 3 kts 320°
2026-05-09 06:45 54.08531 -4.61494 46 ft 7 kts 285°
2026-05-09 06:45 54.08540 -4.61622 47 ft 14 kts 274°
2026-05-09 06:45 54.08546 -4.61739 47 ft 0 kts 277°
2026-05-09 06:46 54.08547 -4.61756 47 ft 4 kts 277°
2026-05-09 06:46 54.08551 -4.61861 46 ft 12 kts 267°
2026-05-09 06:46 54.08532 -4.62048 47 ft 19 kts 256°
2026-05-09 06:46 54.08501 -4.62276 48 ft 19 kts 258°
2026-05-09 06:47 54.08473 -4.62493 50 ft 18 kts 259°
2026-05-09 06:47 54.08449 -4.62707 50 ft 15 kts 258°
2026-05-09 06:47 54.08432 -4.62842 52 ft 8 kts 257°
2026-05-09 06:47 54.08422 -4.62918 53 ft 5 kts 257°
2026-05-09 06:48 54.08413 -4.62991 53 ft 8 kts 260°
2026-05-09 06:48 54.08400 -4.63108 53 ft 10 kts 263°
2026-05-09 06:48 54.08415 -4.63227 56 ft 9 kts 293°
2026-05-09 06:48 54.08445 -4.63324 59 ft 8 kts 309°
2026-05-09 06:49 54.08487 -4.63341 61 ft 5 kts 17°
2026-05-09 06:49 54.08533 -4.63353 63 ft 9 kts 323°
2026-05-09 06:49 54.08573 -4.63411 64 ft 4 kts 342°
2026-05-09 06:49 54.08593 -4.63400 65 ft 3 kts 34°
2026-05-09 06:50 54.08607 -4.63380 66 ft 0 kts 42°
2026-05-09 06:50 54.08607 -4.63381 66 ft 0 kts 41°